owner,sensor,date,latitude,longitude,vertical_datum,wind_speed,wind_to_direction,wind_speed_of_gust,qcFlag 
ADCP,ioos:station:wmo:42887:1,2011-03-01T00:00:00Z,28.1910,-88.4960,48.2,8.0,236.0,99.0,'11111222,11111222,11144222' 
ADCP,ioos:station:wmo:42887:1,2011-03-01T00:20:00Z,28.1910,-88.4960,48.2,7.6,236.0,99.0,'11111222,11111222,11144222' 
ADCP,ioos:station:wmo:42887:1,2011-03-01T01:00:00Z,28.1910,-88.4960,48.2,8.7,215.0,99.0,'11111222,11111222,11144222' 
ADCP,ioos:station:wmo:42887:1,2011-03-01T01:20:00Z,28.1910,-88.4960,48.2,9.2,220.0,99.0,'11111222,11111222,11144222' 
ADCP,ioos:station:wmo:42887:1,2011-03-01T01:40:00Z,28.1910,-88.4960,48.2,9.8,215.0,99.0,'11111222,11111222,11144222' 
ADCP,ioos:station:wmo:42887:1,2011-03-01T02:00:00Z,28.1910,-88.4960,48.2,10.6,211.0,99.0,'11111222,11111222,11144222' 
ADCP,ioos:station:wmo:42887:1,2011-03-01T02:20:00Z,28.1910,-88.4960,48.2,7.9,236.0,99.0,'11111222,11111222,11144222' 
ADCP,ioos:station:wmo:42887:1,2011-03-01T02:40:00Z,28.1910,-88.4960,48.2,8.2,244.0,99.0,'11111222,11111222,11144222' 
ADCP,ioos:station:wmo:42887:1,2011-03-01T03:20:00Z,28.1910,-88.4960,48.2,5.2,251.0,99.0,'11111222,11111222,11144222' 
ADCP,ioos:station:wmo:42887:1,2011-03-01T03:40:00Z,28.1910,-88.4960,48.2,5.3,250.0,99.0,'11111222,11111222,11144222' 
ADCP,ioos:station:wmo:42887:1,2011-03-01T04:00:00Z,28.1910,-88.4960,48.2,5.2,249.0,99.0,'11111222,11111222,11144222' 
ADCP,ioos:station:wmo:42887:1,2011-03-01T04:20:00Z,28.1910,-88.4960,48.2,3.3,268.0,99.0,'11111222,11111222,11144222' 
ADCP,ioos:station:wmo:42887:1,2011-03-01T05:00:00Z,28.1910,-88.4960,48.2,3.6,265.0,99.0,'11111222,11111222,11144222' 
ADCP,ioos:station:wmo:42887:1,2011-03-01T05:20:00Z,28.1910,-88.4960,48.2,5.5,252.0,99.0,'11111222,11111222,11144222' 
ADCP,ioos:station:wmo:42887:1,2011-03-01T05:40:00Z,28.1910,-88.4960,48.2,2.8,275.0,99.0,'11111222,11111222,11144222' 
ADCP,ioos:station:wmo:42887:1,2011-03-01T06:00:00Z,28.1910,-88.4960,48.2,1.8,268.0,99.0,'11111222,11111222,11144222' 
ADCP,ioos:station:wmo:42887:1,2011-03-01T06:20:00Z,28.1910,-88.4960,48.2,4.5,280.0,99.0,'11111222,11111222,11144222' 
ADCP,ioos:station:wmo:42887:1,2011-03-01T06:40:00Z,28.1910,-88.4960,48.2,5.7,293.0,99.0,'11111222,11111222,11144222' 
ADCP,ioos:station:wmo:42887:1,2011-03-01T07:00:00Z,28.1910,-88.4960,48.2,8.7,20.0,99.0,'11111222,11111222,11144222' 
ADCP,ioos:station:wmo:42887:1,2011-03-01T07:20:00Z,28.1910,-88.4960,48.2,10.3,30.0,99.0,'11111222,11111222,11144222' 
ADCP,ioos:station:wmo:42887:1,2011-03-01T07:40:00Z,28.1910,-88.4960,48.2,10.3,26.0,99.0,'11111222,11111222,11144222' 
ADCP,ioos:station:wmo:42887:1,2011-03-01T08:00:00Z,28.1910,-88.4960,48.2,11.5,35.0,99.0,'11111222,11111222,11144222' 
ADCP,ioos:station:wmo:42887:1,2011-03-01T08:20:00Z,28.1910,-88.4960,48.2,10.6,37.0,99.0,'11111222,11111222,11144222' 
ADCP,ioos:station:wmo:42887:1,2011-03-01T08:40:00Z,28.1910,-88.4960,48.2,11.0,35.0,99.0,'11111222,11111222,11144222' 
ADCP,ioos:station:wmo:42887:1,2011-03-01T09:00:00Z,28.1910,-88.4960,48.2,11.3,35.0,99.0,'11111222,11111222,11144222' 
ADCP,ioos:station:wmo:42887:1,2011-03-01T09:20:00Z,28.1910,-88.4960,48.2,12.1,35.0,99.0,'11111222,11111222,11144222' 
ADCP,ioos:station:wmo:42887:1,2011-03-01T09:40:00Z,28.1910,-88.4960,48.2,10.6,30.0,99.0,'11111222,11111222,11144222' 
ADCP,ioos:station:wmo:42887:1,2011-03-01T10:00:00Z,28.1910,-88.4960,48.2,10.8,33.0,99.0,'11111222,11111222,11144222' 
ADCP,ioos:station:wmo:42887:1,2011-03-01T10:20:00Z,28.1910,-88.4960,48.2,11.0,32.0,99.0,'11111222,11111222,11144222' 
ADCP,ioos:station:wmo:42887:1,2011-03-01T10:40:00Z,28.1910,-88.4960,48.2,9.6,45.0,99.0,'11111222,11111222,11144222' 
ADCP,ioos:station:wmo:42887:1,2011-03-01T11:00:00Z,28.1910,-88.4960,48.2,10.1,45.0,99.0,'11111222,11111222,11144222' 
ADCP,ioos:station:wmo:42887:1,2011-03-01T11:20:00Z,28.1910,-88.4960,48.2,10.3,36.0,99.0,'11111222,11111222,11144222' 
ADCP,ioos:station:wmo:42887:1,2011-03-01T11:40:00Z,28.1910,-88.4960,48.2,9.5,42.0,99.0,'11111222,11111222,11144222' 
ADCP,ioos:station:wmo:42887:1,2011-03-01T12:00:00Z,28.1910,-88.4960,48.2,10.3,49.0,99.0,'11111222,11111222,11144222' 
ADCP,ioos:station:wmo:42887:1,2011-03-01T12:40:00Z,28.1910,-88.4960,48.2,8.7,36.0,99.0,'11111222,11111222,11144222' 
ADCP,ioos:station:wmo:42887:1,2011-03-01T13:00:00Z,28.1910,-88.4960,48.2,7.9,37.0,99.0,'11111222,11111222,11144222' 
ADCP,ioos:station:wmo:42887:1,2011-03-01T13:20:00Z,28.1910,-88.4960,48.2,9.7,44.0,99.0,'11111222,11111222,11144222' 
ADCP,ioos:station:wmo:42887:1,2011-03-01T13:40:00Z,28.1910,-88.4960,48.2,8.6,48.0,99.0,'11111222,11111222,11144222' 
ADCP,ioos:station:wmo:42887:1,2011-03-01T14:00:00Z,28.1910,-88.4960,48.2,7.1,50.0,99.0,'11111222,11111222,11144222' 
ADCP,ioos:station:wmo:42887:1,2011-03-01T14:20:00Z,28.1910,-88.4960,48.2,8.0,54.0,99.0,'11111222,11111222,11144222' 
ADCP,ioos:station:wmo:42887:1,2011-03-01T14:40:00Z,28.1910,-88.4960,48.2,9.0,52.0,99.0,'11111222,11111222,11144222' 
ADCP,ioos:station:wmo:42887:1,2011-03-01T15:00:00Z,28.1910,-88.4960,48.2,8.1,50.0,99.0,'11111222,11111222,11144222' 
ADCP,ioos:station:wmo:42887:1,2011-03-01T15:20:00Z,28.1910,-88.4960,48.2,8.7,35.0,99.0,'11111222,11111222,11144222' 
ADCP,ioos:station:wmo:42887:1,2011-03-01T15:40:00Z,28.1910,-88.4960,48.2,8.0,51.0,99.0,'11111222,11111222,11144222' 
ADCP,ioos:station:wmo:42887:1,2011-03-01T16:20:00Z,28.1910,-88.4960,48.2,7.9,48.0,99.0,'11111222,11111222,11144222' 
ADCP,ioos:station:wmo:42887:1,2011-03-01T16:40:00Z,28.1910,-88.4960,48.2,7.9,52.0,99.0,'11111222,11111222,11144222' 
ADCP,ioos:station:wmo:42887:1,2011-03-01T17:00:00Z,28.1910,-88.4960,48.2,7.2,52.0,99.0,'11111222,11111222,11144222' 
ADCP,ioos:station:wmo:42887:1,2011-03-01T17:20:00Z,28.1910,-88.4960,48.2,8.0,39.0,99.0,'11111222,11111222,11144222' 
ADCP,ioos:station:wmo:42887:1,2011-03-01T17:40:00Z,28.1910,-88.4960,48.2,7.6,30.0,99.0,'11111222,11111222,11144222' 
ADCP,ioos:station:wmo:42887:1,2011-03-01T18:00:00Z,28.1910,-88.4960,48.2,7.9,40.0,99.0,'11111222,11111222,11144222' 
ADCP,ioos:station:wmo:42887:1,2011-03-01T18:20:00Z,28.1910,-88.4960,48.2,6.5,46.0,99.0,'11111222,11111222,11144222' 
ADCP,ioos:station:wmo:42887:1,2011-03-01T18:40:00Z,28.1910,-88.4960,48.2,6.2,40.0,99.0,'11111222,11111222,11144222' 
ADCP,ioos:station:wmo:42887:1,2011-03-01T19:00:00Z,28.1910,-88.4960,48.2,6.3,35.0,99.0,'11111222,11111222,11144222' 
ADCP,ioos:station:wmo:42887:1,2011-03-01T19:20:00Z,28.1910,-88.4960,48.2,5.6,31.0,99.0,'11111222,11111222,11144222' 
ADCP,ioos:station:wmo:42887:1,2011-03-01T19:40:00Z,28.1910,-88.4960,48.2,7.5,40.0,99.0,'11111222,11111222,11144222' 
ADCP,ioos:station:wmo:42887:1,2011-03-01T20:00:00Z,28.1910,-88.4960,48.2,7.3,50.0,99.0,'11111222,11111222,11144222' 
ADCP,ioos:station:wmo:42887:1,2011-03-01T20:20:00Z,28.1910,-88.4960,48.2,7.0,38.0,99.0,'11111222,11111222,11144222' 
ADCP,ioos:station:wmo:42887:1,2011-03-01T20:40:00Z,28.1910,-88.4960,48.2,6.8,47.0,99.0,'11111222,11111222,11144222' 
ADCP,ioos:station:wmo:42887:1,2011-03-01T21:00:00Z,28.1910,-88.4960,48.2,6.7,45.0,99.0,'11111222,11111222,11144222' 
ADCP,ioos:station:wmo:42887:1,2011-03-01T21:20:00Z,28.1910,-88.4960,48.2,7.7,57.0,99.0,'11111222,11111222,11144222' 
ADCP,ioos:station:wmo:42887:1,2011-03-01T21:40:00Z,28.1910,-88.4960,48.2,6.4,56.0,99.0,'11111222,11111222,11144222' 
ADCP,ioos:station:wmo:42887:1,2011-03-01T22:00:00Z,28.1910,-88.4960,48.2,7.6,39.0,99.0,'11111222,11111222,11144222' 
ADCP,ioos:station:wmo:42887:1,2011-03-01T22:20:00Z,28.1910,-88.4960,48.2,7.7,38.0,99.0,'11111222,11111222,11144222' 
ADCP,ioos:station:wmo:42887:1,2011-03-01T22:40:00Z,28.1910,-88.4960,48.2,7.1,58.0,99.0,'11111222,11111222,11144222' 
ADCP,ioos:station:wmo:42887:1,2011-03-01T23:00:00Z,28.1910,-88.4960,48.2,7.1,52.0,99.0,'11111222,11111222,11144222' 
ADCP,ioos:station:wmo:42887:1,2011-03-01T23:20:00Z,28.1910,-88.4960,48.2,6.9,44.0,99.0,'11111222,11111222,11144222' 
ADCP,ioos:station:wmo:42887:1,2011-03-02T00:00:00Z,28.1910,-88.4960,48.2,7.7,73.0,99.0,'11111222,11111222,11144222' 
ADCP,ioos:station:wmo:42887:1,2011-03-02T00:20:00Z,28.1910,-88.4960,48.2,7.2,84.0,99.0,'11111222,11111222,11144222' 
ADCP,ioos:station:wmo:42887:1,2011-03-02T00:40:00Z,28.1910,-88.4960,48.2,7.5,80.0,99.0,'11111222,11111222,11144222' 
ADCP,ioos:station:wmo:42887:1,2011-03-02T01:00:00Z,28.1910,-88.4960,48.2,5.3,81.0,99.0,'11111222,11111222,11144222' 
ADCP,ioos:station:wmo:42887:1,2011-03-02T01:20:00Z,28.1910,-88.4960,48.2,7.2,75.0,99.0,'11111222,11111222,11144222' 
ADCP,ioos:station:wmo:42887:1,2011-03-02T01:40:00Z,28.1910,-88.4960,48.2,6.9,89.0,99.0,'11111222,11111222,11144222' 
ADCP,ioos:station:wmo:42887:1,2011-03-02T02:00:00Z,28.1910,-88.4960,48.2,5.9,91.0,99.0,'11111222,11111222,11144222' 
ADCP,ioos:station:wmo:42887:1,2011-03-02T02:20:00Z,28.1910,-88.4960,48.2,6.0,81.0,99.0,'11111222,11111222,11144222' 
ADCP,ioos:station:wmo:42887:1,2011-03-02T02:40:00Z,28.1910,-88.4960,48.2,6.1,85.0,99.0,'11111222,11111222,11144222' 
ADCP,ioos:station:wmo:42887:1,2011-03-02T03:00:00Z,28.1910,-88.4960,48.2,5.2,92.0,99.0,'11111222,11111222,11144222' 
ADCP,ioos:station:wmo:42887:1,2011-03-02T03:20:00Z,28.1910,-88.4960,48.2,6.6,87.0,99.0,'11111222,11111222,11144222' 
ADCP,ioos:station:wmo:42887:1,2011-03-02T03:40:00Z,28.1910,-88.4960,48.2,5.4,96.0,99.0,'11111222,11111222,11144222' 
ADCP,ioos:station:wmo:42887:1,2011-03-02T04:00:00Z,28.1910,-88.4960,48.2,6.3,75.0,99.0,'11111222,11111222,11144222' 
ADCP,ioos:station:wmo:42887:1,2011-03-02T04:20:00Z,28.1910,-88.4960,48.2,5.9,78.0,99.0,'11111222,11111222,11144222' 
ADCP,ioos:station:wmo:42887:1,2011-03-02T05:00:00Z,28.1910,-88.4960,48.2,4.1,91.0,99.0,'11111222,11111222,11144222' 
ADCP,ioos:station:wmo:42887:1,2011-03-02T05:20:00Z,28.1910,-88.4960,48.2,5.0,96.0,99.0,'11111222,11111222,11144222' 
ADCP,ioos:station:wmo:42887:1,2011-03-02T05:40:00Z,28.1910,-88.4960,48.2,6.4,94.0,99.0,'11111222,11111222,11144222' 
ADCP,ioos:station:wmo:42887:1,2011-03-02T06:00:00Z,28.1910,-88.4960,48.2,6.8,97.0,99.0,'11111222,11111222,11144222' 
ADCP,ioos:station:wmo:42887:1,2011-03-02T06:20:00Z,28.1910,-88.4960,48.2,5.2,104.0,99.0,'11111222,11111222,11144222' 
ADCP,ioos:station:wmo:42887:1,2011-03-02T06:40:00Z,28.1910,-88.4960,48.2,6.4,99.0,99.0,'11111222,11111222,11144222' 
ADCP,ioos:station:wmo:42887:1,2011-03-02T07:00:00Z,28.1910,-88.4960,48.2,6.1,104.0,99.0,'11111222,11111222,11144222' 
ADCP,ioos:station:wmo:42887:1,2011-03-02T07:20:00Z,28.1910,-88.4960,48.2,7.5,98.0,99.0,'11111222,11111222,11144222' 
ADCP,ioos:station:wmo:42887:1,2011-03-02T07:40:00Z,28.1910,-88.4960,48.2,6.3,103.0,99.0,'11111222,11111222,11144222' 
ADCP,ioos:station:wmo:42887:1,2011-03-02T08:00:00Z,28.1910,-88.4960,48.2,7.6,104.0,99.0,'11111222,11111222,11144222' 
ADCP,ioos:station:wmo:42887:1,2011-03-02T08:20:00Z,28.1910,-88.4960,48.2,8.2,99.0,99.0,'11111222,11111222,11144222' 
ADCP,ioos:station:wmo:42887:1,2011-03-02T08:40:00Z,28.1910,-88.4960,48.2,7.4,93.0,99.0,'11111222,11111222,11144222' 
ADCP,ioos:station:wmo:42887:1,2011-03-02T09:00:00Z,28.1910,-88.4960,48.2,6.9,98.0,99.0,'11111222,11111222,11144222' 
ADCP,ioos:station:wmo:42887:1,2011-03-02T09:20:00Z,28.1910,-88.4960,48.2,7.5,93.0,99.0,'11111222,11111222,11144222' 
ADCP,ioos:station:wmo:42887:1,2011-03-02T09:40:00Z,28.1910,-88.4960,48.2,7.4,92.0,99.0,'11111222,11111222,11144222' 
ADCP,ioos:station:wmo:42887:1,2011-03-02T10:00:00Z,28.1910,-88.4960,48.2,7.2,90.0,99.0,'11111222,11111222,11144222' 
ADCP,ioos:station:wmo:42887:1,2011-03-02T10:20:00Z,28.1910,-88.4960,48.2,6.5,82.0,99.0,'11111222,11111222,11144222' 
ADCP,ioos:station:wmo:42887:1,2011-03-02T10:40:00Z,28.1910,-88.4960,48.2,7.2,97.0,99.0,'11111222,11111222,11144222' 
ADCP,ioos:station:wmo:42887:1,2011-03-02T11:00:00Z,28.1910,-88.4960,48.2,7.3,99.0,99.0,'11111222,11111222,11144222' 
ADCP,ioos:station:wmo:42887:1,2011-03-02T11:20:00Z,28.1910,-88.4960,48.2,7.0,97.0,99.0,'11111222,11111222,11144222' 
ADCP,ioos:station:wmo:42887:1,2011-03-02T11:40:00Z,28.1910,-88.4960,48.2,7.5,97.0,99.0,'11111222,11111222,11144222' 
ADCP,ioos:station:wmo:42887:1,2011-03-02T12:00:00Z,28.1910,-88.4960,48.2,6.4,89.0,99.0,'11111222,11111222,11144222' 
ADCP,ioos:station:wmo:42887:1,2011-03-02T12:20:00Z,28.1910,-88.4960,48.2,7.5,100.0,99.0,'11111222,11111222,11144222' 
ADCP,ioos:station:wmo:42887:1,2011-03-02T12:40:00Z,28.1910,-88.4960,48.2,7.2,86.0,99.0,'11111222,11111222,11144222' 
ADCP,ioos:station:wmo:42887:1,2011-03-02T13:00:00Z,28.1910,-88.4960,48.2,6.4,97.0,99.0,'11111222,11111222,11144222' 
ADCP,ioos:station:wmo:42887:1,2011-03-02T13:20:00Z,28.1910,-88.4960,48.2,8.7,102.0,99.0,'11111222,11111222,11144222' 
ADCP,ioos:station:wmo:42887:1,2011-03-02T13:40:00Z,28.1910,-88.4960,48.2,8.6,103.0,99.0,'11111222,11111222,11144222' 
ADCP,ioos:station:wmo:42887:1,2011-03-02T14:00:00Z,28.1910,-88.4960,48.2,8.1,103.0,99.0,'11111222,11111222,11144222' 
ADCP,ioos:station:wmo:42887:1,2011-03-02T14:20:00Z,28.1910,-88.4960,48.2,7.3,104.0,99.0,'11111222,11111222,11144222' 
ADCP,ioos:station:wmo:42887:1,2011-03-02T14:40:00Z,28.1910,-88.4960,48.2,9.1,103.0,99.0,'11111222,11111222,11144222' 
ADCP,ioos:station:wmo:42887:1,2011-03-02T15:00:00Z,28.1910,-88.4960,48.2,7.5,105.0,99.0,'11111222,11111222,11144222' 
ADCP,ioos:station:wmo:42887:1,2011-03-02T15:20:00Z,28.1910,-88.4960,48.2,7.4,109.0,99.0,'11111222,11111222,11144222' 
ADCP,ioos:station:wmo:42887:1,2011-03-02T15:40:00Z,28.1910,-88.4960,48.2,8.1,85.0,99.0,'11111222,11111222,11144222' 
ADCP,ioos:station:wmo:42887:1,2011-03-02T16:00:00Z,28.1910,-88.4960,48.2,9.1,103.0,99.0,'11111222,11111222,11144222' 
ADCP,ioos:station:wmo:42887:1,2011-03-02T16:20:00Z,28.1910,-88.4960,48.2,8.6,100.0,99.0,'11111222,11111222,11144222' 
ADCP,ioos:station:wmo:42887:1,2011-03-02T16:40:00Z,28.1910,-88.4960,48.2,9.0,99.0,99.0,'11111222,11111222,11144222' 
ADCP,ioos:station:wmo:42887:1,2011-03-02T17:00:00Z,28.1910,-88.4960,48.2,8.4,98.0,99.0,'11111222,11111222,11144222' 
ADCP,ioos:station:wmo:42887:1,2011-03-02T17:20:00Z,28.1910,-88.4960,48.2,8.6,102.0,99.0,'11111222,11111222,11144222' 
ADCP,ioos:station:wmo:42887:1,2011-03-02T17:40:00Z,28.1910,-88.4960,48.2,8.1,100.0,99.0,'11111222,11111222,11144222' 
ADCP,ioos:station:wmo:42887:1,2011-03-02T18:00:00Z,28.1910,-88.4960,48.2,8.1,94.0,99.0,'11111222,11111222,11144222' 
ADCP,ioos:station:wmo:42887:1,2011-03-02T18:20:00Z,28.1910,-88.4960,48.2,9.0,90.0,99.0,'11111222,11111222,11144222' 
ADCP,ioos:station:wmo:42887:1,2011-03-02T18:40:00Z,28.1910,-88.4960,48.2,9.1,99.0,99.0,'11111222,11111222,11144222' 
ADCP,ioos:station:wmo:42887:1,2011-03-02T19:00:00Z,28.1910,-88.4960,48.2,7.9,103.0,99.0,'11111222,11111222,11144222' 
ADCP,ioos:station:wmo:42887:1,2011-03-02T19:20:00Z,28.1910,-88.4960,48.2,9.1,97.0,99.0,'11111222,11111222,11144222' 
ADCP,ioos:station:wmo:42887:1,2011-03-02T19:40:00Z,28.1910,-88.4960,48.2,9.4,94.0,99.0,'11111222,11111222,11144222' 
ADCP,ioos:station:wmo:42887:1,2011-03-02T20:00:00Z,28.1910,-88.4960,48.2,9.5,97.0,99.0,'11111222,11111222,11144222' 
ADCP,ioos:station:wmo:42887:1,2011-03-02T20:20:00Z,28.1910,-88.4960,48.2,8.9,94.0,99.0,'11111222,11111222,11144222' 
ADCP,ioos:station:wmo:42887:1,2011-03-02T20:40:00Z,28.1910,-88.4960,48.2,9.1,99.0,99.0,'11111222,11111222,11144222' 
ADCP,ioos:station:wmo:42887:1,2011-03-02T21:00:00Z,28.1910,-88.4960,48.2,8.6,102.0,99.0,'11111222,11111222,11144222' 
ADCP,ioos:station:wmo:42887:1,2011-03-02T21:20:00Z,28.1910,-88.4960,48.2,8.5,92.0,99.0,'11111222,11111222,11144222' 
ADCP,ioos:station:wmo:42887:1,2011-03-02T21:40:00Z,28.1910,-88.4960,48.2,8.5,90.0,99.0,'11111222,11111222,11144222' 
ADCP,ioos:station:wmo:42887:1,2011-03-02T22:00:00Z,28.1910,-88.4960,48.2,9.1,97.0,99.0,'11111222,11111222,11144222' 
ADCP,ioos:station:wmo:42887:1,2011-03-02T22:20:00Z,28.1910,-88.4960,48.2,7.6,97.0,99.0,'11111222,11111222,11144222' 
ADCP,ioos:station:wmo:42887:1,2011-03-02T23:00:00Z,28.1910,-88.4960,48.2,8.8,90.0,99.0,'11111222,11111222,11144222' 
ADCP,ioos:station:wmo:42887:1,2011-03-02T23:20:00Z,28.1910,-88.4960,48.2,9.3,93.0,99.0,'11111222,11111222,11144222' 
ADCP,ioos:station:wmo:42887:1,2011-03-02T23:40:00Z,28.1910,-88.4960,48.2,9.1,91.0,99.0,'11111222,11111222,11144222' 
ADCP,ioos:station:wmo:42887:1,2011-03-03T00:00:00Z,28.1910,-88.4960,48.2,8.8,98.0,99.0,'11111222,11111222,11144222' 
ADCP,ioos:station:wmo:42887:1,2011-03-03T00:20:00Z,28.1910,-88.4960,48.2,9.4,97.0,99.0,'11111222,11111222,11144222' 
ADCP,ioos:station:wmo:42887:1,2011-03-03T01:00:00Z,28.1910,-88.4960,48.2,8.9,95.0,99.0,'11111222,11111222,11144222' 
ADCP,ioos:station:wmo:42887:1,2011-03-03T01:20:00Z,28.1910,-88.4960,48.2,8.7,102.0,99.0,'11111222,11111222,11144222' 
ADCP,ioos:station:wmo:42887:1,2011-03-03T01:40:00Z,28.1910,-88.4960,48.2,8.8,99.0,99.0,'11111222,11111222,11144222' 
ADCP,ioos:station:wmo:42887:1,2011-03-03T02:20:00Z,28.1910,-88.4960,48.2,8.8,97.0,99.0,'11111222,11111222,11144222' 
ADCP,ioos:station:wmo:42887:1,2011-03-03T02:40:00Z,28.1910,-88.4960,48.2,7.9,110.0,99.0,'11111222,11111222,11144222' 
ADCP,ioos:station:wmo:42887:1,2011-03-03T03:00:00Z,28.1910,-88.4960,48.2,6.8,104.0,99.0,'11111222,11111222,11144222' 
ADCP,ioos:station:wmo:42887:1,2011-03-03T03:20:00Z,28.1910,-88.4960,48.2,7.9,113.0,99.0,'11111222,11111222,11144222' 
ADCP,ioos:station:wmo:42887:1,2011-03-03T04:00:00Z,28.1910,-88.4960,48.2,8.3,103.0,99.0,'11111222,11111222,11144222' 
ADCP,ioos:station:wmo:42887:1,2011-03-03T05:00:00Z,28.1910,-88.4960,48.2,7.1,94.0,99.0,'11111222,11111222,11144222' 
ADCP,ioos:station:wmo:42887:1,2011-03-03T05:20:00Z,28.1910,-88.4960,48.2,7.5,94.0,99.0,'11111222,11111222,11144222' 
ADCP,ioos:station:wmo:42887:1,2011-03-03T05:40:00Z,28.1910,-88.4960,48.2,7.9,87.0,99.0,'11111222,11111222,11144222' 
ADCP,ioos:station:wmo:42887:1,2011-03-03T06:00:00Z,28.1910,-88.4960,48.2,6.3,115.0,99.0,'11111222,11111222,11144222' 
ADCP,ioos:station:wmo:42887:1,2011-03-03T06:20:00Z,28.1910,-88.4960,48.2,6.3,100.0,99.0,'11111222,11111222,11144222' 
ADCP,ioos:station:wmo:42887:1,2011-03-03T06:40:00Z,28.1910,-88.4960,48.2,7.0,103.0,99.0,'11111222,11111222,11144222' 
ADCP,ioos:station:wmo:42887:1,2011-03-03T07:00:00Z,28.1910,-88.4960,48.2,6.5,111.0,99.0,'11111222,11111222,11144222' 
ADCP,ioos:station:wmo:42887:1,2011-03-03T07:20:00Z,28.1910,-88.4960,48.2,4.8,113.0,99.0,'11111222,11111222,11144222' 
ADCP,ioos:station:wmo:42887:1,2011-03-03T07:40:00Z,28.1910,-88.4960,48.2,7.1,97.0,99.0,'11111222,11111222,11144222' 
ADCP,ioos:station:wmo:42887:1,2011-03-03T08:00:00Z,28.1910,-88.4960,48.2,7.7,110.0,99.0,'11111222,11111222,11144222' 
ADCP,ioos:station:wmo:42887:1,2011-03-03T08:20:00Z,28.1910,-88.4960,48.2,7.6,100.0,99.0,'11111222,11111222,11144222' 
ADCP,ioos:station:wmo:42887:1,2011-03-03T08:40:00Z,28.1910,-88.4960,48.2,7.6,104.0,99.0,'11111222,11111222,11144222' 
ADCP,ioos:station:wmo:42887:1,2011-03-03T09:00:00Z,28.1910,-88.4960,48.2,8.6,107.0,99.0,'11111222,11111222,11144222' 
ADCP,ioos:station:wmo:42887:1,2011-03-03T09:20:00Z,28.1910,-88.4960,48.2,8.2,103.0,99.0,'11111222,11111222,11144222' 
ADCP,ioos:station:wmo:42887:1,2011-03-03T09:40:00Z,28.1910,-88.4960,48.2,8.3,98.0,99.0,'11111222,11111222,11144222' 
ADCP,ioos:station:wmo:42887:1,2011-03-03T10:00:00Z,28.1910,-88.4960,48.2,8.7,97.0,99.0,'11111222,11111222,11144222' 
ADCP,ioos:station:wmo:42887:1,2011-03-03T10:20:00Z,28.1910,-88.4960,48.2,8.6,92.0,99.0,'11111222,11111222,11144222' 
ADCP,ioos:station:wmo:42887:1,2011-03-03T10:40:00Z,28.1910,-88.4960,48.2,8.7,95.0,99.0,'11111222,11111222,11144222' 
ADCP,ioos:station:wmo:42887:1,2011-03-03T11:00:00Z,28.1910,-88.4960,48.2,8.2,100.0,99.0,'11111222,11111222,11144222' 
ADCP,ioos:station:wmo:42887:1,2011-03-03T11:20:00Z,28.1910,-88.4960,48.2,8.0,112.0,99.0,'11111222,11111222,11144222' 
ADCP,ioos:station:wmo:42887:1,2011-03-03T11:40:00Z,28.1910,-88.4960,48.2,8.8,119.0,99.0,'11111222,11111222,11144222' 
ADCP,ioos:station:wmo:42887:1,2011-03-03T12:00:00Z,28.1910,-88.4960,48.2,7.7,109.0,99.0,'11111222,11111222,11144222' 
ADCP,ioos:station:wmo:42887:1,2011-03-03T12:20:00Z,28.1910,-88.4960,48.2,7.9,116.0,99.0,'11111222,11111222,11144222' 
ADCP,ioos:station:wmo:42887:1,2011-03-03T12:40:00Z,28.1910,-88.4960,48.2,8.2,120.0,99.0,'11111222,11111222,11144222' 
ADCP,ioos:station:wmo:42887:1,2011-03-03T13:00:00Z,28.1910,-88.4960,48.2,7.0,117.0,99.0,'11111222,11111222,11144222' 
ADCP,ioos:station:wmo:42887:1,2011-03-03T13:20:00Z,28.1910,-88.4960,48.2,10.3,120.0,99.0,'11111222,11111222,11144222' 
ADCP,ioos:station:wmo:42887:1,2011-03-03T13:40:00Z,28.1910,-88.4960,48.2,10.6,117.0,99.0,'11111222,11111222,11144222' 
ADCP,ioos:station:wmo:42887:1,2011-03-03T14:00:00Z,28.1910,-88.4960,48.2,11.7,122.0,99.0,'11111222,11111222,11144222' 
ADCP,ioos:station:wmo:42887:1,2011-03-03T14:20:00Z,28.1910,-88.4960,48.2,9.6,127.0,99.0,'11111222,11111222,11144222' 
ADCP,ioos:station:wmo:42887:1,2011-03-03T14:40:00Z,28.1910,-88.4960,48.2,10.8,121.0,99.0,'11111222,11111222,11144222' 
ADCP,ioos:station:wmo:42887:1,2011-03-03T15:00:00Z,28.1910,-88.4960,48.2,11.7,125.0,99.0,'11111222,11111222,11144222' 
ADCP,ioos:station:wmo:42887:1,2011-03-03T15:20:00Z,28.1910,-88.4960,48.2,9.7,123.0,99.0,'11111222,11111222,11144222' 
ADCP,ioos:station:wmo:42887:1,2011-03-03T15:40:00Z,28.1910,-88.4960,48.2,12.2,118.0,99.0,'11111222,11111222,11144222' 
ADCP,ioos:station:wmo:42887:1,2011-03-03T16:00:00Z,28.1910,-88.4960,48.2,11.4,122.0,99.0,'11111222,11111222,11144222' 
ADCP,ioos:station:wmo:42887:1,2011-03-03T16:20:00Z,28.1910,-88.4960,48.2,9.4,130.0,99.0,'11111222,11111222,11144222' 
ADCP,ioos:station:wmo:42887:1,2011-03-03T16:40:00Z,28.1910,-88.4960,48.2,12.3,126.0,99.0,'11111222,11111222,11144222' 
ADCP,ioos:station:wmo:42887:1,2011-03-03T17:00:00Z,28.1910,-88.4960,48.2,11.3,120.0,99.0,'11111222,11111222,11144222' 
ADCP,ioos:station:wmo:42887:1,2011-03-03T17:20:00Z,28.1910,-88.4960,48.2,11.7,115.0,99.0,'11111222,11111222,11144222' 
ADCP,ioos:station:wmo:42887:1,2011-03-03T17:40:00Z,28.1910,-88.4960,48.2,11.5,119.0,99.0,'11111222,11111222,11144222' 
ADCP,ioos:station:wmo:42887:1,2011-03-03T18:00:00Z,28.1910,-88.4960,48.2,12.2,122.0,99.0,'11111222,11111222,11144222' 
ADCP,ioos:station:wmo:42887:1,2011-03-03T18:20:00Z,28.1910,-88.4960,48.2,11.5,119.0,99.0,'11111222,11111222,11144222' 
ADCP,ioos:station:wmo:42887:1,2011-03-03T18:40:00Z,28.1910,-88.4960,48.2,10.9,117.0,99.0,'11111222,11111222,11144222' 
ADCP,ioos:station:wmo:42887:1,2011-03-03T19:00:00Z,28.1910,-88.4960,48.2,11.8,128.0,99.0,'11111222,11111222,11144222' 
ADCP,ioos:station:wmo:42887:1,2011-03-03T19:20:00Z,28.1910,-88.4960,48.2,12.4,120.0,99.0,'11111222,11111222,11144222' 
ADCP,ioos:station:wmo:42887:1,2011-03-03T19:40:00Z,28.1910,-88.4960,48.2,11.6,129.0,99.0,'11111222,11111222,11144222' 
ADCP,ioos:station:wmo:42887:1,2011-03-03T20:00:00Z,28.1910,-88.4960,48.2,11.1,119.0,99.0,'11111222,11111222,11144222' 
ADCP,ioos:station:wmo:42887:1,2011-03-03T20:20:00Z,28.1910,-88.4960,48.2,12.4,126.0,99.0,'11111222,11111222,11144222' 
ADCP,ioos:station:wmo:42887:1,2011-03-03T20:40:00Z,28.1910,-88.4960,48.2,12.2,119.0,99.0,'11111222,11111222,11144222' 
ADCP,ioos:station:wmo:42887:1,2011-03-03T21:00:00Z,28.1910,-88.4960,48.2,11.8,125.0,99.0,'11111222,11111222,11144222' 
ADCP,ioos:station:wmo:42887:1,2011-03-03T21:20:00Z,28.1910,-88.4960,48.2,12.5,130.0,99.0,'11111222,11111222,11144222' 
ADCP,ioos:station:wmo:42887:1,2011-03-03T21:40:00Z,28.1910,-88.4960,48.2,9.8,127.0,99.0,'11111222,11111222,11144222' 
ADCP,ioos:station:wmo:42887:1,2011-03-03T22:00:00Z,28.1910,-88.4960,48.2,11.4,124.0,99.0,'11111222,11111222,11144222' 
ADCP,ioos:station:wmo:42887:1,2011-03-03T22:20:00Z,28.1910,-88.4960,48.2,12.0,121.0,99.0,'11111222,11111222,11144222' 
ADCP,ioos:station:wmo:42887:1,2011-03-03T23:00:00Z,28.1910,-88.4960,48.2,12.1,128.0,99.0,'11111222,11111222,11144222' 
ADCP,ioos:station:wmo:42887:1,2011-03-03T23:20:00Z,28.1910,-88.4960,48.2,11.0,125.0,99.0,'11111222,11111222,11144222' 
ADCP,ioos:station:wmo:42887:1,2011-03-03T23:40:00Z,28.1910,-88.4960,48.2,10.7,121.0,99.0,'11111222,11111222,11144222' 
ADCP,ioos:station:wmo:42887:1,2011-03-04T00:00:00Z,28.1910,-88.4960,48.2,11.5,125.0,99.0,'11111222,11111222,11144222' 